[[{"header":{"parameterUnit":"m.s-1","parameterCategory":1,"la1":30.2991,"la2":30.254,"lo1":-89.0895,"lo2":-89.0444,"dy":0.0017,"dx":0.0017,"nx":28,"ny":28,"refTime":"2024-10-01T21:00:00:Z","depth":0,"parameterNumber":2,"parameterNumberName":"U-component_of_WINDS"},"data":[0,0,0,0,0,0,0,0,0,0,0,0,0,0,0,0,0,0,0,0,0,0,0,0,0,0,0,0,0,0,0,0,0,0,0,0,0,0,0,0,0,0,0,0,0,0,0,0,0,0,0,0,0,0,0,0,0,0,1.316,1.3161,0,1.3228,1.3228,1.3229,1.3256,1.3256,1.3256,1.3256,1.3325,1.3327,1.3328,0,0,0,0,0,0,0,0,0,0,0,0,0,1.3052,1.3053,1.316,1.3161,1.3161,1.3227,1.3228,1.3229,1.3256,1.3256,1.3256,1.3256,1.3324,1.3326,1.3329,0,0,0,0,0,0,0,0,0,0,0,0,0,1.3107,1.3054,1.316,1.3183,1.3186,1.3227,1.3228,1.3229,1.3257,1.3256,1.3256,1.3256,1.3323,1.3326,1.3329,1.3352,0,0,1.3338,1.3339,0,0,0,0,0,0,0,0,1.3104,1.3111,1.3179,1.3181,1.3185,1.3233,1.3215,1.3271,1.3257,1.323,1.3256,1.3256,1.3294,1.33,1.3313,1.3355,1.3358,1.3338,1.334,1.3341,1.3342,0,0,0,0,0,0,0,1.31,1.3108,1.3187,1.318,1.3183,1.3189,1.3197,1.3226,1.3262,1.3232,1.3234,1.3242,1.3296,1.331,1.3315,1.3359,1.3338,1.3341,1.3343,1.3344,1.3422,1.3422,0,0,0,0,0,0,1.3092,1.3105,1.3184,1.3189,1.3143,1.3191,1.32,1.3218,1.3262,1.3269,1.3242,1.3243,1.3305,1.3311,1.3317,1.3346,1.3341,1.3344,1.3346,1.3421,1.3422,1.3422,0,0,0,0,0,0,1.309,1.3099,1.3182,1.3147,1.3158,1.3194,1.3214,1.3219,1.3233,1.327,1.3276,1.325,1.3305,1.3313,1.3343,1.3349,1.3345,1.3348,1.3421,1.3421,1.3422,1.3404,0,0,0,0,0,0,1.3087,1.3098,1.3108,1.3147,1.316,1.3207,1.3214,1.3221,1.3239,1.324,1.3279,1.3285,1.3306,1.3338,1.3346,1.3353,1.335,1.3421,1.3421,1.3422,1.3405,1.3404,1.3404,0,0,0,0,0,1.3083,1.3101,1.3108,1.3118,1.3173,1.3207,1.3214,1.3238,1.3239,1.3249,1.3271,1.3284,1.3347,1.3341,1.335,1.3358,1.342,1.3421,1.3422,1.3405,1.3404,1.3404,0,0,0,0,0,0,1.3061,1.3106,1.3115,1.3147,1.3173,1.3212,1.3225,1.3237,1.3263,1.3264,1.3291,1.33,1.3327,1.3345,1.3338,1.3381,1.3384,1.3387,1.3368,1.3368,1.3368,1.3363,1.3353,0,0,0,0,0,1.306,1.3084,1.3122,1.3146,1.3159,1.3189,1.3205,1.3221,1.3249,1.326,1.3285,1.3312,1.3337,1.3354,1.338,1.3407,1.3415,1.3417,1.3416,1.3416,1.3418,1.3432,1.3433,1.3424,1.3424,1.3424,0,0,1.3058,1.3085,1.3099,1.3142,1.3165,1.3188,1.3198,1.3224,1.3241,1.3264,1.3293,1.3312,1.3344,1.3372,1.3386,1.3388,1.3422,1.3417,1.3416,1.3418,1.3433,1.3434,1.3434,1.3425,1.3425,1.3424,0,0,1.3066,1.309,1.3112,1.3134,1.3167,1.3187,1.3192,1.3228,1.3242,1.3272,1.3289,1.331,1.3354,1.3375,1.3391,1.3405,1.3417,1.3413,1.3411,1.3425,1.3426,1.3426,1.3431,1.3432,1.3415,1.3415,1.3415,0,1.3059,1.3097,1.3121,1.3145,1.3163,1.3184,1.3206,1.3225,1.3265,1.3276,1.3279,1.3333,1.3356,1.3389,1.3392,1.3405,1.3411,1.3409,1.3424,1.3425,1.3426,1.343,1.3432,1.3414,1.3414,1.3414,1.3414,0,1.3086,1.3112,1.3125,1.3163,1.3182,1.3205,1.3232,1.3248,1.3261,1.328,1.331,1.3337,1.3368,1.3377,1.3391,1.3411,1.3412,1.3418,1.3422,1.3425,1.343,1.3432,1.3413,1.3413,1.3413,1.3413,0,0,1.3084,1.3134,1.3139,1.3155,1.3193,1.3212,1.3235,1.3265,1.3278,1.3304,1.3323,1.3359,1.3365,1.3384,1.3399,1.3412,1.342,1.3417,1.3418,1.3416,1.3443,1.3438,1.344,1.3427,1.3428,1.3428,1.344,0,1.3097,1.314,1.3162,1.3194,1.3217,1.3236,1.3256,1.328,1.3298,1.332,1.334,1.3364,1.3371,1.3382,1.3394,1.3416,1.3426,1.3415,1.3445,1.3446,1.3437,1.3442,1.3437,1.3447,1.3442,1.3443,1.3443,0,1.3119,1.3144,1.3179,1.3212,1.3223,1.324,1.3269,1.3289,1.3317,1.3329,1.3349,1.3364,1.3387,1.3389,1.3421,1.3414,1.3427,1.3439,1.344,1.3444,1.3445,1.3446,1.3451,1.3453,1.3446,1.3446,1.3446,0,1.3113,1.3156,1.3182,1.3196,1.3235,1.3247,1.3264,1.3291,1.3307,1.3332,1.3343,1.337,1.3384,1.3404,1.3426,1.3425,1.3456,1.3459,1.3466,1.3466,1.3472,1.3472,1.348,1.3481,1.3481,1.3481,1.3481,0,1.3125,1.3145,1.318,1.3196,1.3219,1.3243,1.3265,1.3283,1.3307,1.3326,1.3344,1.3361,1.3389,1.341,1.3427,1.345,1.3457,1.3467,1.3471,1.3465,1.3464,1.3475,1.3475,1.3481,1.3481,1.3481,1.3481,0,1.3123,1.3147,1.3176,1.3211,1.322,1.3235,1.3265,1.328,1.3299,1.3323,1.3329,1.3358,1.3383,1.3407,1.344,1.3452,1.3475,1.3481,1.3466,1.3468,1.3474,1.3473,1.3489,1.3492,1.3491,1.3491,1.3491,0,1.3129,1.3145,1.3181,1.3195,1.3212,1.3235,1.3251,1.3275,1.3291,1.3322,1.3334,1.336,1.3383,1.3422,1.3445,1.3471,1.3477,1.3481,1.3481,1.3474,1.3477,1.3475,1.3477,1.348,1.348,1.348,1.348,0,1.3137,1.3148,1.3171,1.3198,1.3217,1.324,1.3262,1.3273,1.3301,1.3318,1.3344,1.3361,1.3394,1.342,1.3448,1.3465,1.3477,1.348,1.3483,1.3477,1.3468,1.3472,1.3465,1.3479,1.348,1.348,1.348,1.348,1.3139,1.3154,1.3181,1.3206,1.3226,1.3246,1.3262,1.3282,1.3304,1.3334,1.3346,1.3372,1.3398,1.3436,1.3452,1.3472,1.3475,1.3479,1.3481,1.3481,1.348,1.3464,1.3478,1.3478,1.3478,1.3478,1.3478,0,1.3148,1.3166,1.3189,1.322,1.3239,1.3249,1.3274,1.3289,1.3312,1.3335,1.3356,1.3385,1.3409,1.3434,1.346,1.3471,1.3477,1.3477,1.3477,1.348,1.3476,1.3471,1.3472,1.3472,1.3472,1.3472,1.3472,1.3472,1.3155,1.318,1.3193,1.3228,1.3246,1.3271,1.3285,1.3304,1.3322,1.3353,1.3374,1.339,1.3413,1.344,1.3463,1.347,1.3478,1.3476,1.3484,1.348,1.3481,1.3481,1.3476,1.3478,1.3478,1.3487,1.3487,1.3487]},{"header":{"parameterUnit":"m.s-1","parameterCategory":1,"la1":30.2991,"la2":30.254,"lo1":-89.0895,"lo2":-89.0444,"dy":0.0017,"dx":0.0017,"nx":28,"ny":28,"refTime":"2024-10-01T21:00:00:Z","depth":0,"parameterNumber":3,"parameterNumberName":"V-component_of_WINDS"},"data":[0,0,0,0,0,0,0,0,0,0,0,0,0,0,0,0,0,0,0,0,0,0,0,0,0,0,0,0,0,0,0,0,0,0,0,0,0,0,0,0,0,0,0,0,0,0,0,0,0,0,0,0,0,0,0,0,0,0,2.0342,2.0342,0,2.0302,2.0302,2.0301,2.0286,2.0286,2.0286,2.0287,2.0241,2.024,2.0238,0,0,0,0,0,0,0,0,0,0,0,0,0,2.04,2.0399,2.0342,2.0342,2.0341,2.0302,2.0302,2.0301,2.0286,2.0286,2.0286,2.0287,2.0241,2.024,2.0238,0,0,0,0,0,0,0,0,0,0,0,0,0,2.0369,2.0399,2.0342,2.0329,2.0328,2.0303,2.0302,2.0301,2.0286,2.0286,2.0287,2.0287,2.0242,2.024,2.0238,2.0222,0,0,2.0232,2.0231,0,0,0,0,0,0,0,0,2.0371,2.0367,2.0332,2.033,2.0328,2.03,2.0306,2.0274,2.0286,2.0302,2.0287,2.0287,2.026,2.0256,2.0248,2.022,2.0218,2.0232,2.023,2.023,2.0229,0,0,0,0,0,0,0,2.0373,2.0368,2.0326,2.0331,2.0329,2.0323,2.0319,2.03,2.028,2.03,2.0299,2.0295,2.0259,2.025,2.0247,2.0217,2.0232,2.023,2.0229,2.0228,2.0171,2.017,0,0,0,0,0,0,2.0378,2.037,2.0328,2.0325,2.0351,2.0322,2.0318,2.0308,2.028,2.0276,2.0295,2.0294,2.0254,2.025,2.0246,2.0224,2.023,2.0228,2.0227,2.0171,2.0171,2.017,0,0,0,0,0,0,2.0379,2.0374,2.0329,2.0347,2.0341,2.0321,2.0311,2.0308,2.0299,2.0276,2.0272,2.029,2.0254,2.0248,2.0228,2.0222,2.0227,2.0225,2.0171,2.0171,2.017,2.018,0,0,0,0,0,0,2.0381,2.0375,2.037,2.0348,2.034,2.0314,2.0311,2.0307,2.0296,2.0295,2.027,2.0266,2.0253,2.0231,2.0226,2.0219,2.0223,2.0172,2.0171,2.0171,2.0181,2.018,2.018,0,0,0,0,0,2.0383,2.0374,2.037,2.0365,2.0334,2.0314,2.0309,2.0296,2.0296,2.029,2.0275,2.0267,2.0223,2.0229,2.0223,2.0216,2.0172,2.0171,2.0171,2.0181,2.018,2.018,0,0,0,0,0,0,2.0394,2.037,2.0366,2.0349,2.0334,2.0311,2.0303,2.0296,2.0279,2.0279,2.0261,2.0256,2.0236,2.0224,2.023,2.0198,2.0197,2.0195,2.0207,2.0206,2.0206,2.0209,2.0222,0,0,0,0,0,2.0395,2.0382,2.0361,2.0348,2.0341,2.0323,2.0314,2.0305,2.0288,2.028,2.0264,2.0246,2.0228,2.0216,2.0199,2.0179,2.0172,2.0171,2.017,2.017,2.0169,2.0156,2.0154,2.0168,2.0168,2.0168,0,0,2.0396,2.0382,2.0374,2.035,2.0337,2.0323,2.0318,2.0303,2.0291,2.0278,2.0257,2.0245,2.0223,2.0202,2.0192,2.0191,2.0164,2.017,2.017,2.0168,2.0155,2.0154,2.0152,2.0167,2.0168,2.0168,0,0,2.0391,2.0379,2.0366,2.0354,2.0334,2.0322,2.0319,2.0298,2.0289,2.0269,2.0258,2.0243,2.0212,2.0197,2.0185,2.0173,2.0165,2.0167,2.0166,2.0154,2.0153,2.0152,2.0146,2.0144,2.0166,2.0166,2.0166,0,2.0394,2.0373,2.036,2.0346,2.0335,2.0323,2.0309,2.0297,2.0272,2.0264,2.0264,2.0225,2.0209,2.0184,2.0181,2.0173,2.0167,2.017,2.0154,2.0153,2.0152,2.0146,2.0144,2.0166,2.0166,2.0166,2.0166,0,2.0378,2.0363,2.0355,2.0333,2.0321,2.0307,2.029,2.0279,2.0271,2.0258,2.0237,2.0218,2.0196,2.0189,2.018,2.0162,2.0162,2.0158,2.0157,2.0151,2.0146,2.0143,2.0167,2.0167,2.0167,2.0166,0,0,2.0379,2.0349,2.0346,2.0336,2.0313,2.0301,2.0285,2.0264,2.0255,2.0238,2.0223,2.0197,2.0193,2.018,2.0169,2.0158,2.0148,2.0155,2.0155,2.0154,2.0125,2.0127,2.0125,2.0142,2.0142,2.0142,2.0126,0,2.037,2.0343,2.0331,2.0309,2.0294,2.0282,2.0268,2.0252,2.0239,2.0223,2.0209,2.0191,2.0188,2.0179,2.0168,2.0152,2.0142,2.0153,2.0127,2.0126,2.0132,2.0123,2.0125,2.0112,2.0124,2.0124,2.0123,0,2.0356,2.034,2.0317,2.0295,2.0288,2.0276,2.0256,2.0242,2.0222,2.0213,2.0198,2.0188,2.0168,2.0169,2.0141,2.0149,2.0137,2.0127,2.0126,2.0123,2.0124,2.0118,2.0108,2.0105,2.012,2.012,2.0121,0,2.0358,2.033,2.0313,2.0304,2.0278,2.027,2.0258,2.0239,2.0227,2.0208,2.02,2.0179,2.0167,2.015,2.0133,2.0135,2.0106,2.0106,2.0097,2.0097,2.0091,2.0092,2.0078,2.0085,2.0085,2.0085,2.0085,0,2.0349,2.0335,2.0314,2.0303,2.0286,2.0271,2.0254,2.0242,2.0224,2.0209,2.0197,2.0182,2.0161,2.0144,2.013,2.0108,2.0103,2.0094,2.0091,2.0095,2.0096,2.0087,2.0087,2.0084,2.0085,2.0085,2.0085,0,2.0348,2.0334,2.0314,2.0291,2.0285,2.0273,2.0253,2.0241,2.0228,2.0208,2.0203,2.0181,2.016,2.0142,2.0113,2.0104,2.0081,2.0077,2.0088,2.0086,2.0078,2.0079,2.0058,2.0053,2.0064,2.0064,2.0064,0,2.0344,2.0333,2.0309,2.0299,2.0288,2.0271,2.0259,2.0243,2.0231,2.0206,2.0197,2.0175,2.0156,2.0122,2.0103,2.008,2.0075,2.0069,2.0071,2.0076,2.0073,2.0074,2.0072,2.0069,2.0069,2.0069,2.0069,0,2.0336,2.0329,2.0313,2.0294,2.0281,2.0264,2.0248,2.024,2.022,2.0206,2.0185,2.017,2.0141,2.0119,2.0094,2.008,2.007,2.0068,2.0065,2.0069,2.0075,2.0071,2.0087,2.0069,2.0069,2.0069,2.0069,2.0069,2.0333,2.0322,2.0304,2.0286,2.0272,2.0256,2.0244,2.0229,2.0211,2.0188,2.0178,2.0156,2.0134,2.01,2.0086,2.0067,2.0065,2.006,2.0059,2.0058,2.0058,2.0079,2.0062,2.0062,2.0062,2.0062,2.0062,0,2.0324,2.0312,2.0295,2.0273,2.0258,2.0252,2.0233,2.022,2.0201,2.0183,2.0165,2.0139,2.0117,2.0096,2.0072,2.006,2.0055,2.0054,2.0055,2.0051,2.0061,2.0066,2.0059,2.0059,2.0059,2.0059,2.0059,2.0059,2.0318,2.03,2.029,2.0263,2.025,2.023,2.0219,2.0204,2.0189,2.0161,2.0143,2.013,2.0109,2.0084,2.0062,2.0056,2.0047,2.0048,2.004,2.005,2.0051,2.0051,2.0056,2.0046,2.0046,2.0032,2.0032,2.0031]}]]